Tracking 20382 objects as of 24-Feb-2020
HD Live streaming from Space Station
objects crossing your sky now
Track the group of recently launched Starlink satellites

ECHO 1 DEB (METAL OBJ)

Track ECHO 1 DEB (METAL OBJ) now!
10-day predictions


NORAD ID: 51
Int'l Code: 1960-009C
Perigee: 1,524.3 km
Apogee: 1,690.2 km
Inclination: 47.2 °
Period: 118.2 minutes
Semi major axis: 7978 km
RCS: 0.6323 m2 (medium)
Launch date: August 12, 1960
Source: United States (US)
Launch site: AIR FORCE EASTERN TEST RANGE (AFETR)

Note: This is SATELLITE DEBRIS
aabbcc
Your satellite tracking list
Your tracking list is empty




NASA's NSSDC Master Catalog

Two Line Element Set (TLE):
1    51U 60009C   20054.88059080 -.00000116  00000-0 -30657-3 0  9994
2    51  47.2148 341.8776 0103993 183.0290 176.9878 12.18270494650115
Source of the keplerian elements: AFSPC